[[{"header":{"parameterUnit":"m.s-1","parameterCategory":1,"la1":30.2991,"la2":30.254,"lo1":-89.0895,"lo2":-89.0444,"dy":0.0017,"dx":0.0017,"nx":28,"ny":28,"refTime":"2024-07-14T03:00:00:Z","depth":0,"parameterNumber":2,"parameterNumberName":"U-component_of_WINDS"},"data":[0,0,0,0,0,0,0,0,0,0,0,0,0,0,0,0,0,0,0,0,0,0,0,0,0,0,0,0,0,0,0,0,0,0,0,0,0,0,0,0,0,0,0,0,0,0,0,0,0,0,0,0,0,0,0,0,0,0,2.4698,2.4699,0,2.4734,2.4734,2.4735,2.4676,2.4674,2.4672,2.4671,2.4709,2.4712,2.4715,0,0,0,0,0,0,0,0,0,0,0,0,0,2.4582,2.4584,2.4698,2.4699,2.4699,2.4734,2.4734,2.4735,2.4677,2.4674,2.4672,2.467,2.4708,2.4711,2.4715,0,0,0,0,0,0,0,0,0,0,0,0,0,2.4627,2.4585,2.4698,2.4674,2.4672,2.4734,2.4734,2.4735,2.4677,2.4674,2.4671,2.4669,2.4707,2.4711,2.4715,2.4802,0,0,2.4729,2.473,0,0,0,0,0,0,0,0,2.4624,2.4631,2.4677,2.4676,2.4674,2.4698,2.4707,2.4758,2.4678,2.4676,2.4671,2.4667,2.4708,2.4712,2.4725,2.4804,2.4806,2.4729,2.4732,2.4733,2.4735,0,0,0,0,0,0,0,2.4621,2.4629,2.4712,2.4678,2.4676,2.4663,2.4666,2.4717,2.4708,2.4676,2.4671,2.4676,2.4706,2.4721,2.4726,2.4806,2.4729,2.4733,2.4735,2.4737,2.496,2.4963,0,0,0,0,0,0,2.4621,2.4627,2.4711,2.4713,2.4641,2.4667,2.467,2.4693,2.4707,2.4707,2.4679,2.4673,2.4715,2.4721,2.4727,2.4831,2.4733,2.4737,2.474,2.4957,2.4961,2.4964,0,0,0,0,0,0,2.4618,2.4629,2.471,2.4669,2.4678,2.4672,2.4698,2.4695,2.471,2.471,2.4708,2.4696,2.4713,2.4721,2.4784,2.4831,2.4739,2.4743,2.4953,2.4958,2.4963,2.5039,0,0,0,0,0,0,2.4615,2.4628,2.466,2.467,2.4681,2.4766,2.4701,2.4698,2.4718,2.4711,2.4725,2.4725,2.4711,2.4778,2.4789,2.4836,2.4747,2.4949,2.4955,2.4961,2.5032,2.5046,2.5058,0,0,0,0,0,2.4611,2.468,2.4662,2.4673,2.4721,2.4769,2.4775,2.4758,2.4722,2.4755,2.4755,2.4724,2.4824,2.4785,2.4796,2.4845,2.4946,2.4953,2.4961,2.5027,2.5043,2.5057,0,0,0,0,0,0,2.4677,2.4681,2.4661,2.4735,2.4752,2.4759,2.48,2.4776,2.4804,2.4796,2.4774,2.4778,2.4847,2.4852,2.4808,2.4931,2.4879,2.4889,2.4925,2.4941,2.4954,2.4951,2.475,0,0,0,0,0,2.47,2.4738,2.474,2.4805,2.4815,2.4806,2.4826,2.4812,2.4828,2.4835,2.484,2.4858,2.4893,2.4917,2.495,2.5032,2.5036,2.5072,2.5085,2.5095,2.5104,2.515,2.5167,2.4989,2.4989,2.4989,0,0,2.4748,2.4755,2.478,2.4819,2.483,2.4871,2.4812,2.4858,2.4888,2.4842,2.4903,2.4907,2.4926,2.5,2.5032,2.5006,2.5154,2.5105,2.5113,2.5117,2.516,2.5177,2.5192,2.4994,2.4993,2.4992,0,0,2.4856,2.4865,2.4921,2.4934,2.4952,2.4946,2.496,2.497,2.4971,2.5031,2.4999,2.5035,2.5096,2.5111,2.5127,2.5243,2.5217,2.5254,2.5321,2.5366,2.538,2.5392,2.5435,2.5451,2.5263,2.5264,2.5264,0,2.4914,2.4974,2.4953,2.5002,2.502,2.498,2.5038,2.5051,2.5079,2.5093,2.5063,2.5141,2.515,2.5228,2.5257,2.527,2.5286,2.5253,2.538,2.5392,2.5403,2.5444,2.546,2.5268,2.5268,2.5267,2.5267,0,2.5045,2.5087,2.513,2.5158,2.5181,2.5234,2.5223,2.5249,2.5233,2.523,2.5293,2.5303,2.5338,2.5355,2.534,2.5432,2.5415,2.5383,2.533,2.5425,2.5463,2.5478,2.5275,2.5273,2.5272,2.527,0,0,2.5196,2.5212,2.5229,2.5242,2.5259,2.5292,2.5343,2.5377,2.5401,2.5421,2.5465,2.5518,2.5489,2.5507,2.5493,2.5532,2.5626,2.5495,2.5495,2.552,2.5729,2.5755,2.5773,2.5608,2.5611,2.5613,2.5728,0,2.5305,2.5394,2.5377,2.5464,2.5504,2.5467,2.5512,2.5528,2.5527,2.5562,2.5561,2.56,2.5557,2.5568,2.5605,2.5606,2.5668,2.5598,2.565,2.5652,2.5647,2.5793,2.5819,2.5928,2.5743,2.5745,2.5747,0,2.5445,2.5471,2.5562,2.5574,2.559,2.5631,2.5661,2.5694,2.5712,2.5709,2.573,2.5709,2.5761,2.5707,2.578,2.5733,2.5753,2.5757,2.5761,2.5766,2.5706,2.5803,2.5962,2.5979,2.577,2.5768,2.5767,0,2.5548,2.5606,2.5668,2.568,2.5696,2.5725,2.5733,2.5748,2.577,2.5797,2.5811,2.5844,2.5862,2.5889,2.5878,2.5839,2.5953,2.5898,2.5954,2.5954,2.598,2.5979,2.6146,2.5991,2.5991,2.5991,2.599,0,2.5673,2.573,2.5715,2.5753,2.5817,2.5798,2.5862,2.5865,2.5879,2.5919,2.5889,2.5926,2.5908,2.5945,2.5937,2.6,2.6008,2.6008,2.6005,2.6011,2.6011,2.6025,2.6018,2.5995,2.5994,2.5993,2.5992,0,2.5799,2.5791,2.5857,2.5866,2.587,2.5917,2.5925,2.5962,2.5959,2.6009,2.602,2.6016,2.6058,2.6049,2.6095,2.6089,2.6169,2.6156,2.6163,2.616,2.6217,2.6212,2.6399,2.6423,2.6252,2.6254,2.6255,0,2.588,2.5923,2.5938,2.5962,2.5972,2.6011,2.6034,2.6017,2.6042,2.6066,2.61,2.6139,2.617,2.6239,2.6241,2.6276,2.6265,2.6328,2.627,2.6275,2.6268,2.6266,2.6271,2.634,2.6342,2.6343,2.6345,0,2.6025,2.6019,2.6052,2.6085,2.6112,2.6137,2.6159,2.618,2.6166,2.6195,2.6238,2.6261,2.6309,2.6348,2.6381,2.639,2.6366,2.6363,2.6378,2.6385,2.6388,2.6389,2.6196,2.6359,2.6357,2.6356,2.6355,2.6355,2.6132,2.617,2.6186,2.6224,2.6239,2.6261,2.6296,2.6298,2.6333,2.637,2.6358,2.6407,2.6425,2.6467,2.648,2.6518,2.6495,2.6516,2.6522,2.6528,2.6536,2.6381,2.6524,2.6524,2.6523,2.6523,2.6523,0,2.6277,2.6286,2.6321,2.6353,2.6384,2.6357,2.6381,2.6408,2.6452,2.647,2.6501,2.6551,2.659,2.6595,2.6632,2.6662,2.6652,2.6672,2.667,2.6673,2.6554,2.6538,2.668,2.668,2.668,2.668,2.668,2.668,2.6356,2.6419,2.6415,2.6485,2.6494,2.6541,2.6557,2.6577,2.6592,2.6649,2.6681,2.6684,2.6698,2.6735,2.677,2.6771,2.6787,2.6812,2.6809,2.6697,2.6681,2.6667,2.6652,2.6815,2.6815,2.6925,2.6926,2.6927]},{"header":{"parameterUnit":"m.s-1","parameterCategory":1,"la1":30.2991,"la2":30.254,"lo1":-89.0895,"lo2":-89.0444,"dy":0.0017,"dx":0.0017,"nx":28,"ny":28,"refTime":"2024-07-14T03:00:00:Z","depth":0,"parameterNumber":3,"parameterNumberName":"V-component_of_WINDS"},"data":[0,0,0,0,0,0,0,0,0,0,0,0,0,0,0,0,0,0,0,0,0,0,0,0,0,0,0,0,0,0,0,0,0,0,0,0,0,0,0,0,0,0,0,0,0,0,0,0,0,0,0,0,0,0,0,0,0,0,0.6514,0.6515,0,0.6585,0.6586,0.6587,0.6627,0.6627,0.6627,0.6627,0.6698,0.67,0.6701,0,0,0,0,0,0,0,0,0,0,0,0,0,0.6409,0.6411,0.6514,0.6515,0.6516,0.6585,0.6586,0.6587,0.6627,0.6627,0.6627,0.6627,0.6697,0.6699,0.6701,0,0,0,0,0,0,0,0,0,0,0,0,0,0.6465,0.6411,0.6514,0.6544,0.6547,0.6585,0.6586,0.6587,0.6627,0.6627,0.6627,0.6628,0.6697,0.6699,0.6702,0.6714,0,0,0.671,0.6711,0,0,0,0,0,0,0,0,0.6461,0.6468,0.6539,0.6542,0.6546,0.6597,0.6575,0.6629,0.6627,0.6597,0.6627,0.6628,0.6664,0.6669,0.6682,0.6717,0.672,0.671,0.6712,0.6713,0.6713,0,0,0,0,0,0,0,0.6457,0.6466,0.6542,0.6539,0.6544,0.6553,0.6561,0.6585,0.6628,0.6599,0.6602,0.661,0.6666,0.668,0.6684,0.6721,0.671,0.6712,0.6714,0.6715,0.6768,0.6768,0,0,0,0,0,0,0.6449,0.6462,0.654,0.6544,0.6503,0.6555,0.6564,0.6581,0.6628,0.6636,0.661,0.6612,0.6675,0.6681,0.6687,0.6703,0.6713,0.6715,0.6717,0.6768,0.6768,0.6767,0,0,0,0,0,0,0.6447,0.6456,0.6537,0.6504,0.6515,0.6556,0.6575,0.6582,0.6596,0.6636,0.6644,0.6616,0.6675,0.6683,0.6707,0.6706,0.6716,0.6719,0.6768,0.6768,0.6768,0.6736,0,0,0,0,0,0,0.6444,0.6455,0.646,0.6504,0.6517,0.6556,0.6575,0.6583,0.66,0.6603,0.6644,0.6651,0.6676,0.6702,0.6709,0.671,0.6721,0.6768,0.6768,0.6768,0.6738,0.6735,0.6733,0,0,0,0,0,0.644,0.6449,0.6461,0.647,0.6525,0.6556,0.6563,0.6593,0.66,0.6606,0.6632,0.665,0.6705,0.6705,0.6712,0.6714,0.6768,0.6768,0.6768,0.6739,0.6736,0.6733,0,0,0,0,0,0,0.6404,0.6455,0.6469,0.6492,0.652,0.6563,0.6571,0.6589,0.6614,0.6616,0.6651,0.6659,0.6679,0.6699,0.6697,0.6727,0.6739,0.674,0.6714,0.6711,0.6709,0.6704,0.6723,0,0,0,0,0,0.6398,0.6421,0.6464,0.648,0.6493,0.653,0.6544,0.6565,0.6594,0.6606,0.6634,0.6661,0.6684,0.6699,0.6723,0.6741,0.6749,0.6746,0.6743,0.6741,0.6742,0.6751,0.675,0.6766,0.6766,0.6766,0,0,0.6388,0.6419,0.643,0.6474,0.6497,0.6518,0.6539,0.6561,0.6576,0.6609,0.6633,0.6654,0.6686,0.6707,0.6717,0.6724,0.6739,0.6741,0.6739,0.674,0.6751,0.6749,0.6748,0.6766,0.6766,0.6766,0,0,0.638,0.6405,0.6422,0.6445,0.648,0.6504,0.6508,0.6549,0.6564,0.6589,0.6613,0.6631,0.6671,0.6693,0.6709,0.6708,0.6725,0.6714,0.6702,0.6711,0.671,0.6709,0.6707,0.6706,0.6715,0.6715,0.6715,0,0.6362,0.6396,0.6427,0.6447,0.6465,0.6496,0.6512,0.6532,0.6573,0.6584,0.6591,0.6641,0.6665,0.6691,0.669,0.6703,0.6707,0.671,0.6708,0.6707,0.6706,0.6705,0.6705,0.6713,0.6713,0.6713,0.6714,0,0.6371,0.6394,0.6403,0.6442,0.6461,0.6478,0.6512,0.6527,0.6545,0.6567,0.6591,0.6621,0.6651,0.6658,0.6676,0.6686,0.6689,0.6701,0.6713,0.6703,0.6702,0.6702,0.6711,0.6711,0.6712,0.6712,0,0,0.6343,0.6399,0.6402,0.642,0.6461,0.6478,0.6496,0.6526,0.6538,0.6565,0.658,0.6613,0.6624,0.6643,0.6663,0.6671,0.6666,0.6682,0.6684,0.6678,0.6678,0.6668,0.6667,0.6678,0.6678,0.6678,0.6675,0,0.634,0.6376,0.6404,0.6429,0.6449,0.6478,0.6494,0.652,0.6541,0.6561,0.6584,0.6606,0.662,0.6631,0.664,0.6665,0.6667,0.6666,0.6692,0.6692,0.6683,0.6667,0.6657,0.6652,0.6675,0.6675,0.6675,0,0.6342,0.6368,0.6395,0.6433,0.6442,0.6456,0.6485,0.6504,0.6533,0.6548,0.6568,0.6589,0.6608,0.6618,0.6644,0.6643,0.6655,0.6669,0.6669,0.6673,0.6683,0.6669,0.6652,0.6651,0.6675,0.6675,0.6675,0,0.6318,0.636,0.6381,0.6395,0.644,0.6449,0.6467,0.6497,0.6513,0.6538,0.6548,0.6575,0.6589,0.6608,0.6635,0.664,0.6658,0.6671,0.667,0.6669,0.6673,0.6672,0.6656,0.6681,0.6681,0.6681,0.6681,0,0.6312,0.6327,0.6371,0.6383,0.64,0.6432,0.6448,0.6469,0.6495,0.6511,0.6537,0.6552,0.6587,0.6606,0.6627,0.6645,0.6651,0.6663,0.6668,0.666,0.6659,0.6669,0.667,0.6681,0.6681,0.6681,0.6681,0,0.6288,0.6318,0.6343,0.6383,0.6393,0.6404,0.6438,0.645,0.6473,0.6493,0.65,0.6534,0.6557,0.6586,0.6619,0.6633,0.6648,0.6657,0.6638,0.6641,0.6639,0.6639,0.6629,0.6629,0.6653,0.6653,0.6653,0,0.6282,0.6294,0.6335,0.6349,0.6367,0.6388,0.6404,0.6435,0.645,0.6484,0.6492,0.6518,0.6539,0.6574,0.6602,0.6626,0.6635,0.663,0.6639,0.663,0.6634,0.6633,0.6634,0.6628,0.6627,0.6627,0.6627,0,0.6268,0.6282,0.6305,0.6332,0.635,0.6373,0.6397,0.6406,0.6442,0.6458,0.6482,0.6499,0.6532,0.6556,0.6583,0.6602,0.6619,0.6623,0.6625,0.6617,0.6605,0.6611,0.6631,0.6624,0.6624,0.6624,0.6624,0.6624,0.6253,0.6264,0.6295,0.6319,0.634,0.6361,0.6375,0.6399,0.642,0.645,0.6466,0.6489,0.6517,0.6556,0.6573,0.6591,0.6598,0.66,0.66,0.66,0.6597,0.6602,0.6596,0.6596,0.6597,0.6597,0.6597,0,0.6239,0.626,0.6282,0.6314,0.6333,0.6349,0.6376,0.639,0.641,0.6435,0.6455,0.6482,0.6505,0.6534,0.6559,0.6568,0.6576,0.6573,0.6572,0.6576,0.659,0.6586,0.6565,0.6565,0.6565,0.6565,0.6565,0.6565,0.6234,0.6255,0.6272,0.6302,0.6323,0.6347,0.636,0.638,0.6399,0.6428,0.6448,0.6467,0.6493,0.6519,0.6541,0.6549,0.6556,0.655,0.656,0.6573,0.6575,0.6578,0.6575,0.6552,0.6552,0.6545,0.6545,0.6545]}]]